PIC601 VVTS-VVDN

Flight info

Callsign PIC601
Flight time 0h 56m
Altitude 31000
Route PATM5P PATMA Q2 LATOM LATO2K
Aircraft A20N/M-SDE2E3FGHIRWXY/LB1

Departure

Time 2026-04-25 14:19
Airport Tan Son Nhat International Airport (VVTS)

Arrival

Time 2026-04-25 15:15
Airport Da Nang International Airport (VVDN)
Time Latitude Longitude Altitude Speed Heading
2026-04-25 13:51 10.81235 106.65277 39 ft 0 kts 159°
2026-04-25 14:06 10.81243 106.65273 40 ft 2 kts 158°
2026-04-25 14:07 10.81258 106.65267 36 ft 2 kts 158°
2026-04-25 14:07 10.81273 106.65261 39 ft 2 kts 157°
2026-04-25 14:07 10.81288 106.65254 37 ft 2 kts 151°
2026-04-25 14:07 10.81301 106.65244 35 ft 2 kts 94°
2026-04-25 14:08 10.81300 106.65234 35 ft 0 kts 68°
2026-04-25 14:10 10.81300 106.65235 39 ft 2 kts 69°
2026-04-25 14:10 10.81310 106.65261 39 ft 6 kts 69°
2026-04-25 14:11 10.81330 106.65316 39 ft 10 kts 69°
2026-04-25 14:11 10.81360 106.65395 23 ft 13 kts 69°
2026-04-25 14:11 10.81394 106.65485 37 ft 14 kts 68°
2026-04-25 14:11 10.81432 106.65586 37 ft 17 kts 69°
2026-04-25 14:12 10.81477 106.65704 37 ft 19 kts 69°
2026-04-25 14:12 10.81512 106.65790 38 ft 1 kts 54°
2026-04-25 14:12 10.81527 106.65799 39 ft 4 kts 19°
2026-04-25 14:12 10.81554 106.65800 37 ft 7 kts 355°
2026-04-25 14:13 10.81650 106.65801 39 ft 13 kts
2026-04-25 14:13 10.81751 106.65801 39 ft 15 kts 31°
2026-04-25 14:13 10.81785 106.65867 38 ft 17 kts 68°
2026-04-25 14:13 10.81831 106.65988 39 ft 19 kts 69°
2026-04-25 14:14 10.81899 106.66171 38 ft 22 kts 69°
2026-04-25 14:14 10.81937 106.66269 39 ft 23 kts 69°
2026-04-25 14:14 10.81996 106.66426 36 ft 25 kts 69°
2026-04-25 14:14 10.82052 106.66575 38 ft 19 kts 69°
2026-04-25 14:15 10.82100 106.66704 37 ft 20 kts 70°
2026-04-25 14:15 10.82137 106.66799 38 ft 22 kts 69°
2026-04-25 14:15 10.82193 106.66948 38 ft 1 kts 69°
2026-04-25 14:15 10.82200 106.66966 38 ft 5 kts 69°
2026-04-25 14:16 10.82227 106.67002 39 ft 8 kts 31°
2026-04-25 14:16 10.82282 106.66997 38 ft 0 kts 338°
2026-04-25 14:16 10.82283 106.66997 38 ft 0 kts 338°
2026-04-25 14:17 10.82284 106.66997 38 ft 2 kts 337°
2026-04-25 14:17 10.82308 106.66978 38 ft 7 kts 315°
2026-04-25 14:17 10.82355 106.66939 38 ft 9 kts 300°
2026-04-25 14:18 10.82335 106.66858 38 ft 24 kts 249°
2026-04-25 14:18 10.82173 106.66430 37 ft 102 kts 249°
2026-04-25 14:18 10.81843 106.65560 38 ft 157 kts 248°
2026-04-25 14:18 10.81438 106.64510 520 ft 163 kts 248°
2026-04-25 14:19 10.81039 106.63403 1127 ft 166 kts 246°
2026-04-25 14:19 10.80636 106.62288 1768 ft 169 kts 246°
2026-04-25 14:19 10.80211 106.61140 2193 ft 184 kts 246°
2026-04-25 14:19 10.79727 106.59844 2539 ft 205 kts 247°
2026-04-25 14:20 10.79487 106.58352 2909 ft 228 kts 276°
2026-04-25 14:20 10.79813 106.57303 3245 ft 242 kts 300°
2026-04-25 14:20 10.81506 106.55778 4163 ft 254 kts 341°
2026-04-25 14:20 10.83251 106.55529 5024 ft 258 kts
2026-04-25 14:21 10.84976 106.56173 5674 ft 271 kts 37°
2026-04-25 14:21 10.86433 106.57361 6683 ft 273 kts 43°
2026-04-25 14:21 10.87848 106.58677 7652 ft 277 kts 44°
2026-04-25 14:21 10.89300 106.60010 8597 ft 282 kts 43°
2026-04-25 14:22 10.90786 106.61319 9539 ft 288 kts 41°
2026-04-25 14:22 10.92335 106.62639 10364 ft 297 kts 40°
2026-04-25 14:22 10.93991 106.64028 10750 ft 320 kts 40°
2026-04-25 14:22 10.95777 106.65515 11123 ft 340 kts 40°
2026-04-25 14:23 10.97635 106.67056 11900 ft 345 kts 39°
2026-04-25 14:23 10.99508 106.68611 12773 ft 348 kts 39°
2026-04-25 14:23 11.01378 106.70165 13586 ft 353 kts 39°
2026-04-25 14:23 11.03312 106.71774 14220 ft 360 kts 39°
2026-04-25 14:24 11.05272 106.73406 14906 ft 365 kts 39°
2026-04-25 14:24 11.07234 106.75039 15570 ft 370 kts 39°
2026-04-25 14:24 11.09246 106.76714 16225 ft 375 kts 39°
2026-04-25 14:24 11.11284 106.78410 16852 ft 380 kts 40°
2026-04-25 14:25 11.13330 106.80113 17436 ft 386 kts 40°
2026-04-25 14:25 11.15420 106.81854 18054 ft 390 kts 40°
2026-04-25 14:25 11.17543 106.83623 18597 ft 394 kts 40°
2026-04-25 14:25 11.18959 106.84804 18999 ft 395 kts 40°
2026-04-25 14:26 11.21803 106.87175 19765 ft 399 kts 40°
2026-04-25 14:26 11.23960 106.88975 20324 ft 402 kts 39°
2026-04-25 14:26 11.26136 106.90791 20908 ft 404 kts 39°
2026-04-25 14:26 11.28306 106.92602 21462 ft 407 kts 39°
2026-04-25 14:27 11.30513 106.94446 22010 ft 410 kts 39°
2026-04-25 14:27 11.32706 106.96277 22557 ft 413 kts 39°
2026-04-25 14:27 11.34955 106.98156 23059 ft 417 kts 39°
2026-04-25 14:27 11.37216 107.00044 23572 ft 420 kts 39°
2026-04-25 14:28 11.39462 107.01922 24017 ft 423 kts 39°
2026-04-25 14:28 11.41755 107.03838 24461 ft 425 kts 39°
2026-04-25 14:28 11.44029 107.05738 24880 ft 428 kts 39°
2026-04-25 14:28 11.46350 107.07679 25288 ft 431 kts 39°
2026-04-25 14:29 11.48677 107.09625 25781 ft 432 kts 39°
2026-04-25 14:29 11.51022 107.11586 26160 ft 436 kts 39°
2026-04-25 14:29 11.53355 107.13538 26557 ft 439 kts 39°
2026-04-25 14:29 11.55729 107.15524 26956 ft 441 kts 39°
2026-04-25 14:30 11.58076 107.17489 27349 ft 444 kts 39°
2026-04-25 14:30 11.62911 107.21538 28138 ft 448 kts 39°
2026-04-25 14:30 11.65310 107.23547 28520 ft 451 kts 39°
2026-04-25 14:31 11.67748 107.25589 28893 ft 453 kts 39°
2026-04-25 14:31 11.70200 107.27645 29245 ft 456 kts 39°
2026-04-25 14:31 11.72662 107.29709 29605 ft 458 kts 39°
2026-04-25 14:31 11.75135 107.31782 29956 ft 461 kts 39°
2026-04-25 14:32 11.77595 107.33846 30272 ft 463 kts 39°
2026-04-25 14:32 11.80099 107.35947 30575 ft 466 kts 39°
2026-04-25 14:32 11.82612 107.38056 30815 ft 469 kts 39°
2026-04-25 14:32 11.85139 107.40177 30901 ft 469 kts 39°
2026-04-25 14:33 11.90145 107.44380 30971 ft 469 kts 39°
2026-04-25 14:33 11.95189 107.48618 30991 ft 468 kts 39°
2026-04-25 14:34 12.00203 107.52832 30991 ft 468 kts 39°
2026-04-25 14:34 12.05244 107.57072 30991 ft 468 kts 39°
2026-04-25 14:35 12.10255 107.61288 31001 ft 469 kts 39°
2026-04-25 14:35 12.15287 107.65525 31003 ft 469 kts 39°
2026-04-25 14:36 12.20315 107.69760 30996 ft 469 kts 39°
2026-04-25 14:36 12.25360 107.74012 30995 ft 469 kts 39°
2026-04-25 14:37 12.30404 107.78203 30993 ft 469 kts 35°
2026-04-25 14:37 12.33251 107.79844 30986 ft 469 kts 23°
2026-04-25 14:37 12.36364 107.80850 30983 ft 469 kts 11°
2026-04-25 14:38 12.42855 107.81239 30980 ft 469 kts
2026-04-25 14:38 12.49405 107.81322 30973 ft 469 kts
2026-04-25 14:39 12.55914 107.81437 30975 ft 470 kts
2026-04-25 14:39 12.62472 107.81565 30964 ft 470 kts
2026-04-25 14:40 12.68975 107.81693 30968 ft 470 kts
2026-04-25 14:40 12.75537 107.81823 30965 ft 470 kts
2026-04-25 14:41 12.82057 107.81952 30961 ft 470 kts
2026-04-25 14:41 12.88638 107.82083 30961 ft 470 kts
2026-04-25 14:42 12.92980 107.82170 30955 ft 471 kts
2026-04-25 14:42 13.01693 107.82345 30955 ft 470 kts
2026-04-25 14:43 13.08263 107.82475 30955 ft 471 kts
2026-04-25 14:43 13.14788 107.82604 30957 ft 471 kts
2026-04-25 14:44 13.21355 107.82734 30958 ft 471 kts
2026-04-25 14:44 13.27881 107.82867 30956 ft 471 kts 360°
2026-04-25 14:45 13.34423 107.82999 30959 ft 471 kts 359°
2026-04-25 14:45 13.40986 107.83135 30955 ft 471 kts 359°
2026-04-25 14:46 13.47501 107.83273 30963 ft 470 kts 360°
2026-04-25 14:46 13.54079 107.83409 30961 ft 470 kts 359°
2026-04-25 14:47 13.58437 107.83499 30965 ft 471 kts 360°
2026-04-25 14:47 13.67162 107.83680 30966 ft 471 kts 360°
2026-04-25 14:48 13.73689 107.83816 30974 ft 471 kts 360°
2026-04-25 14:48 13.80257 107.83953 30977 ft 471 kts 360°
2026-04-25 14:49 13.86806 107.84089 30986 ft 471 kts 360°
2026-04-25 14:49 13.93378 107.84228 30991 ft 471 kts 359°
2026-04-25 14:50 13.99913 107.84364 30995 ft 471 kts 359°
2026-04-25 14:50 14.06415 107.84401 30546 ft 465 kts 358°
2026-04-25 14:51 14.09660 107.84386 29970 ft 463 kts 358°
2026-04-25 14:51 14.12840 107.84375 29288 ft 458 kts 358°
2026-04-25 14:51 14.16027 107.84368 28635 ft 454 kts 358°
2026-04-25 14:51 14.19153 107.84365 27984 ft 449 kts 358°
2026-04-25 14:52 14.22271 107.84363 27329 ft 445 kts 359°
2026-04-25 14:52 14.25371 107.84363 26714 ft 441 kts 358°
2026-04-25 14:52 14.28386 107.84363 26156 ft 435 kts 358°
2026-04-25 14:52 14.29407 107.84363 25943 ft 434 kts 358°
2026-04-25 14:53 14.34416 107.84362 24923 ft 429 kts 359°
2026-04-25 14:53 14.37368 107.84362 24338 ft 426 kts 359°
2026-04-25 14:53 14.40323 107.84361 23772 ft 422 kts 359°
2026-04-25 14:53 14.43267 107.84361 23135 ft 419 kts 359°
2026-04-25 14:54 14.46170 107.84362 22518 ft 414 kts 359°
2026-04-25 14:54 14.49015 107.84362 21904 ft 410 kts 359°
2026-04-25 14:54 14.51859 107.84362 21301 ft 406 kts 359°
2026-04-25 14:54 14.54682 107.84362 20721 ft 402 kts 359°
2026-04-25 14:55 14.57433 107.84362 20144 ft 398 kts 358°
2026-04-25 14:55 14.60201 107.84362 19578 ft 394 kts 358°
2026-04-25 14:55 14.62906 107.84362 19035 ft 391 kts 358°
2026-04-25 14:55 14.65637 107.84362 18509 ft 387 kts 358°
2026-04-25 14:56 14.68296 107.84362 17929 ft 384 kts 358°
2026-04-25 14:56 14.70962 107.84362 17338 ft 380 kts 358°
2026-04-25 14:56 14.73579 107.84361 16770 ft 376 kts 359°
2026-04-25 14:56 14.76191 107.84361 16210 ft 372 kts 359°
2026-04-25 14:57 14.78774 107.84361 15664 ft 369 kts 359°
2026-04-25 14:57 14.81335 107.84361 15137 ft 366 kts 359°
2026-04-25 14:57 14.83844 107.84360 14603 ft 362 kts 359°
2026-04-25 14:57 14.86373 107.84427 14087 ft 360 kts
2026-04-25 14:58 14.88812 107.84823 13581 ft 357 kts 12°
2026-04-25 14:58 14.91185 107.85560 12998 ft 355 kts 19°
2026-04-25 14:58 14.93492 107.86440 12424 ft 353 kts 19°
2026-04-25 14:58 14.95800 107.87307 11879 ft 350 kts 19°
2026-04-25 14:59 14.98092 107.88165 11394 ft 347 kts 19°
2026-04-25 14:59 15.00321 107.89000 11252 ft 345 kts 19°
2026-04-25 14:59 15.02615 107.89859 11147 ft 349 kts 19°
2026-04-25 14:59 15.04128 107.90427 11084 ft 347 kts 19°
2026-04-25 15:00 15.07137 107.91558 11042 ft 346 kts 19°
2026-04-25 15:00 15.09402 107.92408 10804 ft 344 kts 19°
2026-04-25 15:00 15.10893 107.92968 10552 ft 343 kts 19°
2026-04-25 15:00 15.13811 107.94065 10320 ft 326 kts 20°
2026-04-25 15:01 15.15905 107.94853 10197 ft 312 kts 20°
2026-04-25 15:01 15.17904 107.95605 10103 ft 298 kts 20°
2026-04-25 15:01 15.19185 107.96087 10060 ft 293 kts 20°
2026-04-25 15:01 15.21123 107.96816 10054 ft 297 kts 20°
2026-04-25 15:02 15.23066 107.97548 10053 ft 296 kts 20°
2026-04-25 15:02 15.25008 107.98278 10054 ft 296 kts 20°
2026-04-25 15:02 15.26923 107.99001 10053 ft 295 kts 19°
2026-04-25 15:02 15.28863 107.99732 10053 ft 295 kts 19°
2026-04-25 15:03 15.30800 108.00461 10054 ft 295 kts 19°
2026-04-25 15:03 15.32712 108.01180 10040 ft 296 kts 19°
2026-04-25 15:03 15.34660 108.01915 10040 ft 297 kts 19°
2026-04-25 15:03 15.36720 108.02691 10037 ft 332 kts 19°
2026-04-25 15:04 15.38912 108.03516 10034 ft 342 kts 19°
2026-04-25 15:04 15.41126 108.04351 10032 ft 329 kts 19°
2026-04-25 15:04 15.43170 108.05285 10034 ft 311 kts 26°
2026-04-25 15:04 15.45055 108.06271 10020 ft 294 kts 26°
2026-04-25 15:05 15.46888 108.07219 10021 ft 297 kts 26°
2026-04-25 15:05 15.48722 108.08165 10018 ft 296 kts 26°
2026-04-25 15:05 15.50572 108.09119 9858 ft 293 kts 25°
2026-04-25 15:06 15.54207 108.10993 9106 ft 291 kts 26°
2026-04-25 15:06 15.55997 108.11917 8733 ft 288 kts 26°
2026-04-25 15:06 15.57793 108.12844 8279 ft 289 kts 26°
2026-04-25 15:06 15.59611 108.13784 7778 ft 292 kts 26°
2026-04-25 15:07 15.61435 108.14727 7347 ft 291 kts 27°
2026-04-25 15:07 15.63212 108.15645 7094 ft 284 kts 27°
2026-04-25 15:07 15.64970 108.16553 6775 ft 280 kts 27°
2026-04-25 15:07 15.66707 108.17453 6444 ft 278 kts 27°
2026-04-25 15:08 15.68431 108.18347 6080 ft 280 kts 27°
2026-04-25 15:08 15.70179 108.19254 5710 ft 277 kts 27°
2026-04-25 15:08 15.71884 108.20138 5345 ft 275 kts 27°
2026-04-25 15:08 15.73597 108.21027 4986 ft 273 kts 27°
2026-04-25 15:09 15.75294 108.21908 4663 ft 271 kts 27°
2026-04-25 15:09 15.76975 108.22772 4372 ft 266 kts 25°
2026-04-25 15:09 15.80451 108.23288 4136 ft 247 kts 356°
2026-04-25 15:10 15.82145 108.23089 3917 ft 242 kts 353°
2026-04-25 15:10 15.83810 108.22838 3652 ft 240 kts 353°
2026-04-25 15:10 15.86973 108.22379 3086 ft 214 kts 353°
2026-04-25 15:11 15.88386 108.22172 2825 ft 198 kts 353°
2026-04-25 15:11 15.89683 108.21983 2608 ft 179 kts 353°
2026-04-25 15:11 15.90871 108.21811 2370 ft 165 kts 352°
2026-04-25 15:12 15.92989 108.21502 1970 ft 142 kts 352°
2026-04-25 15:12 15.93940 108.21364 1804 ft 136 kts 352°
2026-04-25 15:12 15.94844 108.21232 1641 ft 129 kts 352°
2026-04-25 15:12 15.95436 108.21146 1526 ft 130 kts 352°
2026-04-25 15:13 15.96626 108.20972 1313 ft 129 kts 352°
2026-04-25 15:13 15.98377 108.20717 1004 ft 126 kts 352°
2026-04-25 15:13 15.99235 108.20589 833 ft 125 kts 353°
2026-04-25 15:14 16.00101 108.20464 629 ft 124 kts 352°
2026-04-25 15:14 16.00959 108.20339 465 ft 124 kts 351°
2026-04-25 15:14 16.01805 108.20200 315 ft 125 kts 352°
2026-04-25 15:14 16.02664 108.20081 148 ft 124 kts 350°
2026-04-25 15:15 16.03503 108.19967 35 ft 119 kts 351°
2026-04-25 15:15 16.04138 108.19872 32 ft 62 kts 351°
2026-04-25 15:15 16.04369 108.19839 34 ft 5 kts 352°
2026-04-25 15:15 16.04425 108.19831 33 ft 15 kts 352°
2026-04-25 15:16 16.04546 108.19814 34 ft 20 kts 352°
2026-04-25 15:16 16.04705 108.19791 34 ft 25 kts 352°
2026-04-25 15:16 16.04888 108.19887 34 ft 18 kts 84°
2026-04-25 15:17 16.04912 108.20047 32 ft 5 kts 82°
2026-04-25 15:17 16.04916 108.20070 32 ft 0 kts 76°
2026-04-25 15:17 16.04921 108.20088 31 ft 5 kts 73°
2026-04-25 15:18 16.04936 108.20139 31 ft 0 kts 75°
2026-04-25 15:18 16.04945 108.20160 32 ft 1 kts 36°
2026-04-25 15:18 16.04959 108.20157 32 ft 4 kts 348°
2026-04-25 15:19 16.05006 108.20149 32 ft 9 kts 351°
2026-04-25 15:19 16.05056 108.20142 32 ft 12 kts 352°
2026-04-25 15:19 16.05178 108.20124 32 ft 1 kts 352°
2026-04-25 15:19 16.05203 108.20126 32 ft 6 kts 24°
2026-04-25 15:20 16.05222 108.20177 32 ft 10 kts 78°
2026-04-25 15:20 16.05225 108.20207 32 ft 0 kts 81°